Peru, IL

4:41 PM CDT on May 22, 2017 (GMT -0500)
Illinois Valley Regional-Duncan

Weather History for KVYS - February, 2012

Change the Weather History Date:

Sunday, February 26, 2012

  Actual Average Record
Temperature  
Mean Temperature 42 °F -  
Max Temperature 58 °F 40 °F 64 °F (1976)
Min Temperature 25 °F 21 °F 0 °F (2014)
Degree Days  
Heating Degree Days 24    
Moisture  
Dew Point 27 °F    
Average Humidity 61    
Maximum Humidity 81    
Minimum Humidity 36    
Precipitation  
Precipitation 0.00 in - - ()
Sea Level Pressure  
Sea Level Pressure 30.09 in    
Wind  
Wind Speed 15 mph (SSE)    
Max Wind Speed 31 mph    
Max Gust Speed 36 mph    
Visibility 10 miles    
Events      
Averages and records for this station are not official NWS values.
T = Trace of Precipitation, MM = Missing Value Source: NWS Daily Summary

Daily Weather History Graph

Daily Weather History Graph

Search for Another Location

Airport or City:

Trip Planner

Search our weather history database for the weather conditions in past years. The results will help you decide how hot, cold, wet, or windy it might be!

Date:

Astronomy

Feb. 26, 2012 Rise Set
Actual Time 6:36 AM CST 5:43 PM CST
Civil Twilight 6:08 AM CST 6:11 PM CST
Nautical Twilight 5:36 AM CST 6:43 PM CST
Astronomical Twilight 5:04 AM CST 7:15 PM CST
Moon 8:27 AM CST (2/26) 10:45 PM CST (2/26)
Length of Visible Light 12h 02m
Length of Day
11h 06m
Waxing Crescent, 21% of the Moon is Illuminated
Feb 26
Waxing Crescent
Feb 29
First Quarter
Mar 8
Full
Mar 14
Last Quarter
Mar 22
New

Hourly Weather History & Observations

Time (CST) Temp. Windchill Dew Point Humidity Pressure Visibility Wind Dir Wind Speed Gust Speed Precip Events Conditions
12:15 AM 25.3 °F 18.5 °F 20.3 °F 81% 30.27 in 10.0 mi SE 5.8 mph - N/A   Clear
12:35 AM 25.3 °F 18.5 °F 20.1 °F 81% 30.27 in 10.0 mi SE 5.8 mph - N/A   Clear
12:55 AM 25.7 °F 17.1 °F 19.9 °F 79% 30.27 in 10.0 mi SE 8.1 mph - N/A   Clear
1:15 AM 26.2 °F 17.1 °F 19.8 °F 76% 30.26 in 10.0 mi SE 9.2 mph - N/A   Clear
1:35 AM 26.2 °F 18.6 °F 19.4 °F 75% 30.26 in 10.0 mi SE 6.9 mph - N/A   Clear
1:55 AM 26.6 °F 17.5 °F 19.4 °F 74% 30.25 in 10.0 mi SE 9.2 mph - N/A   Clear
2:15 AM 26.6 °F 17.5 °F 19.4 °F 74% 30.25 in 10.0 mi SE 9.2 mph - N/A   Clear
2:35 AM 27.3 °F 16.6 °F 19.8 °F 73% 30.25 in 10.0 mi SE 12.7 mph - N/A   Clear
2:55 AM 27.5 °F 16.8 °F 19.9 °F 73% 30.24 in 10.0 mi SE 12.7 mph - N/A   Clear
3:15 AM 27.9 °F 16.3 °F 20.1 °F 73% 30.23 in 10.0 mi SE 15.0 mph 19.6 mph N/A   Clear
3:35 AM 28.0 °F 16.1 °F 20.3 °F 73% 30.21 in 10.0 mi SE 16.1 mph - N/A   Clear
3:55 AM 27.9 °F 15.9 °F 20.8 °F 75% 30.21 in 10.0 mi SE 16.1 mph - N/A   Clear
4:15 AM 27.7 °F 15.6 °F 21.0 °F 76% 30.19 in 10.0 mi SSE 16.1 mph - N/A   Clear
4:35 AM 28.0 °F 16.1 °F 21.2 °F 76% 30.20 in 10.0 mi SSE 16.1 mph - N/A   Clear
4:55 AM 28.4 °F 16.2 °F 21.2 °F 74% 30.20 in 10.0 mi SSE 17.3 mph - N/A   Clear
5:15 AM 28.0 °F 15.7 °F 21.2 °F 76% 30.19 in 10.0 mi SE 17.3 mph 23.0 mph N/A   Clear
5:35 AM 28.9 °F 16.1 °F 21.6 °F 74% 30.18 in 10.0 mi SSE 19.6 mph 26.5 mph N/A   Clear
5:55 AM 28.8 °F 15.9 °F 21.6 °F 74% 30.17 in 10.0 mi SSE 19.6 mph 25.3 mph N/A   Clear
6:15 AM 29.1 °F 16.4 °F 21.6 °F 73% 30.16 in 10.0 mi SSE 19.6 mph 26.5 mph N/A   Clear
6:35 AM 28.8 °F 16.6 °F 21.7 °F 75% 30.16 in 10.0 mi SSE 17.3 mph 27.6 mph N/A   Clear
6:55 AM 28.8 °F 16.2 °F 22.1 °F 76% 30.15 in 10.0 mi SSE 18.4 mph 25.3 mph N/A   Clear
7:15 AM 29.1 °F 16.7 °F 22.3 °F 76% 30.14 in 10.0 mi SSE 18.4 mph 24.2 mph N/A   Clear
7:35 AM 30.0 °F 17.5 °F 23.0 °F 75% 30.13 in 10.0 mi SSE 19.6 mph 26.5 mph N/A   Clear
7:55 AM 30.2 °F 18.5 °F 23.0 °F 75% 30.13 in 10.0 mi SSE 17.3 mph - N/A   Clear
8:15 AM 32.0 °F 20.1 °F 24.6 °F 74% 30.12 in 10.0 mi SSE 19.6 mph 24.2 mph N/A   Clear
8:35 AM 34.5 °F 23.1 °F 25.7 °F 70% 30.11 in 10.0 mi SSE 20.7 mph 26.5 mph N/A   Mostly Cloudy
8:55 AM 34.7 °F 23.1 °F 25.7 °F 70% 30.11 in 10.0 mi SSE 21.9 mph 25.3 mph N/A   Mostly Cloudy
9:15 AM 36.7 °F 26.6 °F 27.1 °F 68% 30.10 in 10.0 mi SSE 18.4 mph 21.9 mph N/A   Scattered Clouds
9:35 AM 37.8 °F 28.0 °F 27.5 °F 67% 30.09 in 10.0 mi SSE 18.4 mph 26.5 mph N/A   Mostly Cloudy
9:55 AM 39.6 °F 29.7 °F 28.2 °F 64% 30.08 in 10.0 mi South 20.7 mph 27.6 mph N/A   Overcast
10:15 AM 41.5 °F 31.9 °F 28.4 °F 60% 30.07 in 10.0 mi South 23.0 mph 27.6 mph N/A   Mostly Cloudy
10:35 AM 43.0 °F 34.5 °F 29.5 °F 59% 30.06 in 10.0 mi South 19.6 mph 31.1 mph N/A   Clear
10:55 AM 45.5 °F 37.8 °F 31.1 °F 57% 30.06 in 10.0 mi South 19.6 mph 24.2 mph N/A   Clear
11:15 AM 46.8 °F - 31.1 °F 55% 30.03 in 10.0 mi South 26.5 mph 32.2 mph N/A   Clear
11:35 AM 47.5 °F - 31.3 °F 53% 30.02 in 10.0 mi South 27.6 mph 31.1 mph N/A   Clear
11:55 AM 49.3 °F - 31.3 °F 50% 30.01 in 10.0 mi South 24.2 mph 34.5 mph N/A   Clear
12:15 PM 49.5 °F - 31.6 °F 50% 30.00 in 10.0 mi South 24.2 mph 35.7 mph N/A   Clear
12:35 PM 50.9 °F - 31.8 °F 48% 29.99 in 10.0 mi South 27.6 mph 33.4 mph N/A   Clear
12:55 PM 52.7 °F - 31.6 °F 45% 29.98 in 10.0 mi SSW 31.1 mph 35.7 mph N/A   Clear
1:15 PM 54.1 °F - 32.5 °F 44% 29.97 in 10.0 mi SSW 23.0 mph - N/A   Clear
1:35 PM 54.7 °F - 30.9 °F 40% 29.97 in 10.0 mi SSW 21.9 mph 28.8 mph N/A   Clear
1:55 PM 55.4 °F - 30.7 °F 39% 29.96 in 10.0 mi SSW 23.0 mph 31.1 mph N/A   Clear
2:15 PM 56.7 °F - 31.1 °F 38% 29.96 in 10.0 mi SW 26.5 mph 32.2 mph N/A   Clear
2:35 PM 57.2 °F - 30.6 °F 36% 29.95 in 10.0 mi SSW 28.8 mph 35.7 mph N/A   Clear
2:55 PM 57.2 °F - 30.7 °F 37% 29.94 in 10.0 mi SW 25.3 mph 31.1 mph N/A   Clear
3:15 PM 57.4 °F - 31.1 °F 37% 29.94 in 10.0 mi SSW 24.2 mph - N/A   Clear
3:35 PM 57.7 °F - 31.8 °F 37% 29.93 in 10.0 mi SSW 17.3 mph - N/A   Clear
3:55 PM 58.3 °F - 32.0 °F 37% 29.94 in 10.0 mi SSW 17.3 mph - N/A   Clear
4:15 PM 58.3 °F - 32.4 °F 38% 29.94 in 10.0 mi SSW 15.0 mph - N/A   Clear
4:35 PM 57.2 °F - 34.2 °F 42% 29.95 in 10.0 mi SSW 15.0 mph - N/A   Clear
4:55 PM 54.7 °F - 36.0 °F 49% 29.96 in 10.0 mi South 10.4 mph - N/A   Clear
5:15 PM 52.9 °F - 35.2 °F 51% 29.96 in 10.0 mi South 10.4 mph - N/A   Clear
5:35 PM 50.4 °F - 34.7 °F 55% 29.97 in 10.0 mi South 10.4 mph - N/A   Clear
5:55 PM 50.2 °F - 33.8 °F 53% 29.98 in 10.0 mi South 12.7 mph - N/A   Clear
6:15 PM 50.2 °F - 32.7 °F 51% 29.98 in 10.0 mi South 12.7 mph - N/A   Clear
6:35 PM 49.1 °F - 32.4 °F 53% 29.99 in 10.0 mi South 10.4 mph - N/A   Clear
6:55 PM 46.4 °F 41.5 °F 32.2 °F 58% 29.99 in 10.0 mi South 10.4 mph - N/A   Clear
7:15 PM 44.2 °F 38.8 °F 32.7 °F 64% 30.00 in 10.0 mi South 10.4 mph - N/A   Clear
7:35 PM 44.6 °F 39.2 °F 32.4 °F 62% 30.00 in 10.0 mi South 10.4 mph - N/A   Clear
7:55 PM 46.0 °F 41.4 °F 32.0 °F 58% 30.00 in 10.0 mi SSW 9.2 mph - N/A   Clear
8:15 PM 44.8 °F 39.4 °F 32.2 °F 61% 30.00 in 10.0 mi South 10.4 mph - N/A   Scattered Clouds
8:35 PM 46.4 °F 42.4 °F 32.9 °F 59% 30.03 in 10.0 mi WSW 8.1 mph - N/A   Mostly Cloudy
8:55 PM 43.3 °F 37.7 °F 32.4 °F 65% 30.05 in 10.0 mi NW 10.4 mph - N/A   Mostly Cloudy
9:15 PM 44.1 °F 38.6 °F 33.4 °F 66% 30.06 in 10.0 mi WNW 10.4 mph - N/A   Scattered Clouds
9:35 PM 43.7 °F 38.6 °F 33.3 °F 67% 30.07 in 10.0 mi WNW 9.2 mph - N/A   Scattered Clouds
9:55 PM 40.1 °F 35.3 °F 32.2 °F 73% 30.08 in 10.0 mi WNW 6.9 mph - N/A   Clear
10:15 PM 39.9 °F 34.5 °F 32.2 °F 74% 30.09 in 10.0 mi WNW 8.1 mph - N/A   Clear
10:35 PM 40.3 °F 33.9 °F 31.8 °F 72% 30.10 in 10.0 mi NW 10.4 mph - N/A   Clear
10:55 PM 39.0 °F 32.8 °F 31.5 °F 74% 30.10 in 10.0 mi WNW 9.2 mph - N/A   Clear
11:15 PM 40.1 °F 33.6 °F 29.3 °F 65% 30.11 in 10.0 mi WNW 10.4 mph - N/A   Clear
11:35 PM 39.2 °F 33.0 °F 28.4 °F 65% 30.11 in 10.0 mi WNW 9.2 mph - N/A   Clear
11:55 PM 38.5 °F 32.1 °F 28.4 °F 67% 30.12 in 10.0 mi WNW 9.2 mph - N/A   Clear